TimeCST,TemperatureF,Dew PointF,Humidity,Sea Level PressureIn,VisibilityMPH,Wind Direction,Wind SpeedMPH,Gust SpeedMPH,PrecipitationIn,Events,Conditions,WindDirDegrees,DateUTC
12:15 AM,51.8,50.0,94,29.88,5.0,Calm,Calm,-,N/A,,Overcast,0,2012-12-08 06:15:00
12:35 AM,50.0,50.0,100,29.88,5.0,Calm,Calm,-,N/A,,Overcast,0,2012-12-08 06:35:00
12:55 AM,50.0,50.0,100,29.88,5.0,Calm,Calm,-,N/A,,Overcast,0,2012-12-08 06:55:00
1:15 AM,51.8,50.0,94,29.88,5.0,Calm,Calm,-,N/A,,Overcast,0,2012-12-08 07:15:00
1:35 AM,50.0,50.0,100,29.87,5.0,Calm,Calm,-,N/A,,Overcast,0,2012-12-08 07:35:00
1:55 AM,51.8,50.0,94,29.88,5.0,Calm,Calm,-,N/A,,Overcast,0,2012-12-08 07:55:00
2:15 AM,51.8,50.0,94,29.88,5.0,Calm,Calm,-,N/A,,Overcast,0,2012-12-08 08:15:00
2:35 AM,50.0,50.0,100,29.88,5.0,Calm,Calm,-,N/A,,Overcast,0,2012-12-08 08:35:00
2:55 AM,51.8,50.0,94,29.88,5.0,Calm,Calm,-,N/A,,Overcast,0,2012-12-08 08:55:00
3:15 AM,50.0,50.0,100,29.89,4.0,Calm,Calm,-,N/A,,Mostly Cloudy,0,2012-12-08 09:15:00
3:35 AM,50.0,50.0,100,29.89,4.0,Calm,Calm,-,N/A,,Overcast,0,2012-12-08 09:35:00
3:55 AM,50.0,50.0,100,29.89,3.0,Calm,Calm,-,N/A,,Overcast,0,2012-12-08 09:55:00
4:15 AM,50.0,50.0,100,29.89,3.0,Calm,Calm,-,N/A,,Overcast,0,2012-12-08 10:15:00
4:35 AM,50.0,50.0,100,29.89,3.0,Calm,Calm,-,N/A,,Overcast,0,2012-12-08 10:35:00
4:55 AM,50.0,50.0,100,29.89,2.0,NNW,3.5,-,N/A,,Overcast,340,2012-12-08 10:55:00
5:15 AM,50.0,50.0,100,29.90,0.2,Calm,Calm,-,N/A,Fog,Fog,0,2012-12-08 11:15:00
5:35 AM,50.0,50.0,100,29.90,0.2,North,6.9,-,N/A,Fog,Fog,350,2012-12-08 11:35:00
6:50 AM,48.2,48.2,100,29.92,0.5,North,5.8,-,N/A,Fog,Fog,360,2012-12-08 12:50:00
7:52 AM,48.2,48.2,100,29.93,0.5,Calm,Calm,-,N/A,Fog,Fog,0,2012-12-08 13:52:00
8:27 AM,48.2,48.2,100,29.94,3.0,NNE,6.9,-,N/A,,Overcast,20,2012-12-08 14:27:00
8:58 AM,48.2,48.2,100,29.95,4.0,NE,5.8,-,N/A,,Overcast,40,2012-12-08 14:58:00
9:51 AM,50.0,48.2,94,29.95,5.0,NNE,5.8,-,N/A,,Overcast,30,2012-12-08 15:51:00
10:45 AM,50.0,46.4,87,29.94,7.0,East,6.9,-,N/A,,Overcast,80,2012-12-08 16:45:00
11:45 AM,51.8,48.2,88,29.93,7.0,ESE,6.9,-,N/A,,Overcast,120,2012-12-08 17:45:00
12:52 PM,53.6,48.2,82,29.90,8.0,ESE,6.9,-,N/A,,Overcast,120,2012-12-08 18:52:00
1:45 PM,53.6,48.2,82,29.89,8.0,ESE,9.2,-,N/A,,Overcast,120,2012-12-08 19:45:00
2:50 PM,53.6,48.2,82,29.86,7.0,ESE,11.5,-,N/A,,Overcast,120,2012-12-08 20:50:00
4:45 PM,53.6,48.2,82,29.86,7.0,ESE,6.9,-,N/A,,Overcast,110,2012-12-08 22:45:00
5:56 PM,53.6,48.2,82,29.86,8.0,East,6.9,-,N/A,,Overcast,100,2012-12-08 23:56:00
6:48 PM,53.6,48.2,82,29.86,10.0,ESE,9.2,-,N/A,,Overcast,110,2012-12-09 00:48:00
7:47 PM,53.6,48.2,82,29.86,10.0,ESE,8.1,-,N/A,,Overcast,120,2012-12-09 01:47:00
8:15 PM,53.6,48.2,82,29.85,9.0,ESE,9.2,-,N/A,,Overcast,120,2012-12-09 02:15:00
8:35 PM,53.6,48.2,82,29.85,9.0,Calm,Calm,-,N/A,,Overcast,0,2012-12-09 02:35:00
8:47 PM,53.6,50.0,88,29.85,10.0,ESE,5.8,-,N/A,,Overcast,120,2012-12-09 02:47:00
9:15 PM,53.6,50.0,88,29.85,8.0,Calm,Calm,-,N/A,,Overcast,0,2012-12-09 03:15:00
9:55 PM,53.6,50.0,88,29.85,8.0,Calm,Calm,-,N/A,,Overcast,0,2012-12-09 03:55:00
10:35 PM,53.6,50.0,88,29.85,8.0,SE,5.8,-,N/A,,Overcast,130,2012-12-09 04:35:00
10:55 PM,53.6,50.0,88,29.85,7.0,Calm,Calm,-,N/A,,Mostly Cloudy,0,2012-12-09 04:55:00
11:15 PM,53.6,50.0,88,29.85,8.0,Calm,Calm,-,N/A,,Mostly Cloudy,0,2012-12-09 05:15:00
11:55 PM,51.8,50.0,94,29.83,6.0,SE,5.8,-,N/A,,Mostly Cloudy,130,2012-12-09 05:55:00